sat.trackr.live / text

‹ back to catalog

STARLINK-35392

NORAD 65823 · 2025-221A

PAYLOAD ACTIVE UNKNOWN

§ Identity

Operator
Country
US
Launch date
2025-09-29
Launch site
AFWTR
Launch vehicle
Mass (kg)
RCS (m²)

Purposes: comms

External: N2YO · Heavens-Above · Gunter

§ Orbital elements

Epoch: 2026-09-20T06:52:23.269152Z

Period
93.85 min
Inclination
53.1583°
Eccentricity
0.0001373
Mean motion
15.34407350 rev/d
Perigee alt
461.7 km
Apogee alt
463.6 km
Semi-major
6,840.8 km
B*
7.5995e-4
RAAN
262.5820°
Arg perigee
90.6833°
Mean anomaly
269.4327°
Rev number
5,590

§ Raw data

STARLINK-353921 65823U 25221A   26263.28638043  .00025393  00000+0  75995-3 0  99982 65823  53.1583 262.5820 0001373  90.6833 269.4327 15.34407350 55903

JSON: /api/v1/satellites/65823 · /tle

For live sub-satellite position, see the globe view (requires WebGL).

§ Visibility from observer

Set your observer location to see the next 7 days of passes ≥ 10°. The values pass through the URL so the page stays shareable.

No JS? Fill the form by hand. The geolocation button needs JavaScript.